LFOELFRK

Guest
Details From LFOE - FAUVILLE
To LFRK - Caen Carpiquet
Flight Number -
Tags generated
Created
Modified
Stats Distance 66 nm / 123 km
Max Altitude 7,200 ft / 2,195 m
Waypoints 4
Social Downloads 0
Likes 0
Share VATSIM

Download

Looking for another format? Having issues loading an existing format? Contact us
Advertisement - Login to hide

Notes

Basic altitude profile: - Ascent Rate: 2500ft/min - Ascent Speed: 250kts - Cruise Altitude: 35000ft - Cruise Speed: 420kts - Descent Rate: 1500ft/min - Descent Speed: 250kts Options: - Use NATs: yes - Use PACOTS: yes - Use low airways: yes - Use high airways: yes

Route

LFOE LISEU G4 CAN08 LFRK

ID Type Via Altitude Latitude Longitude Leg Dist Tot Dist Heading (true) Name
O LFOE APT - 0 ft / 0 m 49.02867˚ 1.21987˚ - 0 nm - FAUVILLE
LISEU FIX - 7,200 ft / 2,195 m 49.10333˚ 0.40194˚ 32 nm 32 nm 278° / 278° -
CAN08 FIX G4 (AWY-LO) 5,500 ft / 1,676 m 49.15500˚ -0.25000˚ 25 nm 58 nm 277° / 277° -
O LFRK APT - 0 ft / 0 m 49.17512˚ -0.45194˚ 8 nm 66 nm 279° / 279° Caen Carpiquet

Altitude Profile

Advertisement - Login to hide

LFOE

Details ICAO LFOE
Name FAUVILLE
Region France
Timezone Europe/Paris (UTC+1.0)
Stats Elevation 464 ft / 141 m (AMSL)
Location 49.028669° 1.219866°
Runways 1
Magnetic Variation 0.225° E

METAR

LFOE 120230Z AUTO 28005KT CAVOK 00/M01 Q1002

Decode

TAF

TAF LFOE 120200Z 1203/1303 27008KT 9999 BKN035 BECMG 1215/1218 20010KT TEMPO 1220/1303 BKN006

Decode

Departure Runways

ID Width Length Bearing (true) Bearing (mag) Surface Threshold Offset Overrun Length
04 148 ft / 45 m 9,836 ft / 2,998 m 39.78° 39.56° Asphalt 0 ft / 0 m 0 ft / 0 m
22 148 ft / 45 m 9,836 ft / 2,998 m 219.80° 219.58° Asphalt 0 ft / 0 m 0 ft / 0 m

LFRK

Details ICAO LFRK (CFR)
Name Caen Carpiquet
Region France
Timezone Europe/Paris (UTC+1.0)
Stats Elevation 256 ft / 78 m (AMSL)
Location 49.175122° -0.451941°
Runways 2
Magnetic Variation 0.322° W

METAR

LFRK 120230Z AUTO 25010KT CAVOK 01/M01 Q1004

Decode

TAF

Not found

Destination Runways

ID Width Length Bearing (true) Bearing (mag) Surface Threshold Offset Overrun Length
06 98 ft / 30 m 3,880 ft / 1,183 m 51.68° 52.00° Asphalt 0 ft / 0 m 0 ft / 0 m
13 148 ft / 45 m 6,215 ft / 1,894 m 125.34° 125.66° Asphalt 984 ft / 300 m 0 ft / 0 m
24 98 ft / 30 m 3,880 ft / 1,183 m 231.69° 232.01° Asphalt 0 ft / 0 m 0 ft / 0 m
31 148 ft / 45 m 6,215 ft / 1,894 m 305.36° 305.68° Asphalt 0 ft / 0 m 0 ft / 0 m

Approach Navaids

Runway Type Ident Frequency Range Bearing (true) Bearing (mag) Slope Elevation
31 Localiser CN 110.95 MHz 18 nm / 33 km 305.34° 305.66° - 231 ft / 70 m (AMSL)
31 Glidescope CN 110.95 MHz 10 nm / 19 km 305.35° 305.67° 3.00° 233 ft / 71 m (AMSL)
31 DME CN 110.95 MHz 18 nm / 33 km - - - 233 ft / 71 m (AMSL)

Popular Alternatives